Time,TemperatureF,DewpointF,PressureIn,WindDirection,WindDirectionDegrees,WindSpeedMPH,WindSpeedGustMPH,Humidity,HourlyPrecipIn,Conditions,Clouds,dailyrainin,SoftwareType,DateUTC
2014-09-19 00:02:00,68.4,65.0,30.06,ENE,67,1.6,3.0,90,0.00,,,0.00,Rainwise IP-100,2014-09-19 05:02:00,
2014-09-19 00:07:00,68.3,65.0,30.06,ENE,67,2.1,4.0,90,0.00,,,0.00,Rainwise IP-100,2014-09-19 05:07:00,
2014-09-19 00:12:00,68.1,65.0,30.06,ENE,67,0.0,3.0,90,0.00,,,0.00,Rainwise IP-100,2014-09-19 05:12:00,
2014-09-19 00:17:00,68.0,65.0,30.07,ENE,67,0.0,2.0,90,0.00,,,0.00,Rainwise IP-100,2014-09-19 05:17:00,
2014-09-19 00:22:00,68.0,65.0,30.06,ENE,67,3.3,3.3,90,0.00,,,0.00,Rainwise IP-100,2014-09-19 05:22:00,
2014-09-19 00:27:00,68.0,65.0,30.06,East,90,2.1,4.0,90,0.00,,,0.00,Rainwise IP-100,2014-09-19 05:27:00,
2014-09-19 00:32:00,67.9,65.0,30.06,East,90,2.3,3.0,90,0.00,,,0.00,Rainwise IP-100,2014-09-19 05:32:00,
2014-09-19 00:37:00,67.8,64.0,30.07,ENE,67,2.1,4.0,90,0.00,,,0.00,Rainwise IP-100,2014-09-19 05:37:00,
2014-09-19 00:42:00,67.7,65.0,30.07,ENE,67,1.6,3.0,91,0.00,,,0.00,Rainwise IP-100,2014-09-19 05:42:00,
2014-09-19 00:47:00,67.6,65.0,30.06,East,90,3.3,3.3,91,0.00,,,0.00,Rainwise IP-100,2014-09-19 05:47:00,
2014-09-19 00:52:00,67.6,65.0,30.06,ENE,67,2.6,4.0,91,0.00,,,0.00,Rainwise IP-100,2014-09-19 05:52:00,
2014-09-19 00:57:00,67.6,65.0,30.06,ENE,67,3.3,4.0,91,0.00,,,0.00,Rainwise IP-100,2014-09-19 05:57:00,
2014-09-19 01:02:00,67.5,65.0,30.06,East,90,2.3,3.0,91,0.00,,,0.00,Rainwise IP-100,2014-09-19 06:02:00,
2014-09-19 01:03:00,67.4,65.0,30.06,East,90,1.6,4.0,91,0.00,,,0.00,Rainwise IP-100,2014-09-19 06:03:00,
2014-09-19 01:08:00,67.4,65.0,30.06,ENE,67,2.3,5.0,92,0.00,,,0.00,Rainwise IP-100,2014-09-19 06:08:00,
2014-09-19 01:13:00,67.3,65.0,30.06,ENE,67,2.1,2.1,92,0.00,,,0.00,Rainwise IP-100,2014-09-19 06:13:00,
2014-09-19 01:18:00,67.2,65.0,30.06,ENE,67,0.0,3.0,92,0.00,,,0.00,Rainwise IP-100,2014-09-19 06:18:00,
2014-09-19 01:23:00,67.1,65.0,30.06,ENE,67,0.0,2.0,92,0.00,,,0.00,Rainwise IP-100,2014-09-19 06:23:00,
2014-09-19 01:28:00,67.0,65.0,30.06,ENE,67,1.2,2.0,92,0.00,,,0.00,Rainwise IP-100,2014-09-19 06:28:00,
2014-09-19 01:33:00,67.0,65.0,30.05,East,90,2.1,3.0,92,0.00,,,0.00,Rainwise IP-100,2014-09-19 06:33:00,
2014-09-19 01:38:00,66.9,65.0,30.05,East,90,1.9,4.0,93,0.00,,,0.00,Rainwise IP-100,2014-09-19 06:38:00,
2014-09-19 01:43:00,66.8,64.0,30.06,East,90,3.3,4.0,93,0.00,,,0.00,Rainwise IP-100,2014-09-19 06:43:00,
2014-09-19 01:48:00,66.8,64.0,30.05,ESE,112,1.6,4.0,93,0.00,,,0.00,Rainwise IP-100,2014-09-19 06:48:00,
2014-09-19 01:53:00,66.7,64.0,30.05,ESE,112,2.6,4.0,93,0.00,,,0.00,Rainwise IP-100,2014-09-19 06:53:00,
2014-09-19 01:58:00,66.6,64.0,30.06,ESE,112,3.5,3.5,93,0.00,,,0.00,Rainwise IP-100,2014-09-19 06:58:00,
2014-09-19 02:03:00,66.6,64.0,30.05,ESE,112,1.4,4.0,93,0.00,,,0.00,Rainwise IP-100,2014-09-19 07:03:00,
2014-09-19 02:08:00,66.5,64.0,30.05,ESE,112,1.6,2.0,93,0.00,,,0.00,Rainwise IP-100,2014-09-19 07:08:00,
2014-09-19 02:13:00,66.5,64.0,30.05,ENE,67,1.9,4.0,93,0.00,,,0.00,Rainwise IP-100,2014-09-19 07:13:00,
2014-09-19 02:18:00,66.5,65.0,30.05,ENE,67,2.8,4.0,94,0.00,,,0.00,Rainwise IP-100,2014-09-19 07:18:00,
2014-09-19 02:23:00,66.5,65.0,30.05,East,90,2.8,4.0,94,0.00,,,0.00,Rainwise IP-100,2014-09-19 07:23:00,
2014-09-19 02:28:00,66.6,65.0,30.05,ENE,67,2.1,3.0,94,0.00,,,0.00,Rainwise IP-100,2014-09-19 07:28:00,
2014-09-19 02:33:00,66.7,65.0,30.05,ESE,112,2.1,3.0,94,0.00,,,0.00,Rainwise IP-100,2014-09-19 07:33:00,
2014-09-19 02:38:00,66.7,65.0,30.05,ESE,112,2.6,3.0,94,0.00,,,0.00,Rainwise IP-100,2014-09-19 07:38:00,
2014-09-19 02:43:00,66.6,65.0,30.05,East,90,2.1,3.0,95,0.00,,,0.00,Rainwise IP-100,2014-09-19 07:43:00,
2014-09-19 02:48:00,66.4,65.0,30.05,ENE,67,2.3,3.0,95,0.00,,,0.00,Rainwise IP-100,2014-09-19 07:48:00,
2014-09-19 02:53:00,66.2,65.0,30.04,ESE,112,1.6,3.0,95,0.00,,,0.00,Rainwise IP-100,2014-09-19 07:53:00,
2014-09-19 02:58:00,66.2,65.0,30.05,ESE,112,1.6,3.0,95,0.00,,,0.00,Rainwise IP-100,2014-09-19 07:58:00,
2014-09-19 03:03:00,66.2,65.0,30.04,ENE,67,2.1,4.0,95,0.00,,,0.00,Rainwise IP-100,2014-09-19 08:03:00,
2014-09-19 03:08:00,66.2,65.0,30.05,ENE,67,2.8,3.0,95,0.00,,,0.00,Rainwise IP-100,2014-09-19 08:08:00,
2014-09-19 03:13:00,66.2,65.0,30.04,East,90,2.6,4.0,95,0.00,,,0.00,Rainwise IP-100,2014-09-19 08:13:00,
2014-09-19 03:18:00,66.1,64.0,30.04,ENE,67,2.1,4.0,95,0.00,,,0.00,Rainwise IP-100,2014-09-19 08:18:00,
2014-09-19 03:23:00,65.9,64.0,30.04,ENE,67,2.8,4.0,96,0.00,,,0.00,Rainwise IP-100,2014-09-19 08:23:00,
2014-09-19 03:28:00,65.8,64.0,30.04,ENE,67,2.1,3.0,96,0.00,,,0.00,Rainwise IP-100,2014-09-19 08:28:00,
2014-09-19 03:33:00,65.7,64.0,30.04,ESE,112,1.2,4.0,96,0.00,,,0.00,Rainwise IP-100,2014-09-19 08:33:00,
2014-09-19 03:38:00,65.6,64.0,30.04,ENE,67,2.3,3.0,96,0.00,,,0.00,Rainwise IP-100,2014-09-19 08:38:00,
2014-09-19 03:43:00,65.5,64.0,30.04,ENE,67,2.3,5.0,97,0.00,,,0.00,Rainwise IP-100,2014-09-19 08:43:00,
2014-09-19 03:48:00,65.4,64.0,30.05,ENE,67,2.1,4.0,97,0.00,,,0.00,Rainwise IP-100,2014-09-19 08:48:00,
2014-09-19 03:53:00,65.3,64.0,30.04,ESE,112,4.2,4.2,97,0.00,,,0.00,Rainwise IP-100,2014-09-19 08:53:00,
2014-09-19 03:58:00,65.3,64.0,30.04,ENE,67,2.1,5.0,97,0.00,,,0.00,Rainwise IP-100,2014-09-19 08:58:00,
2014-09-19 04:03:00,65.2,64.0,30.04,ENE,67,1.9,3.0,97,0.00,,,0.00,Rainwise IP-100,2014-09-19 09:03:00,
2014-09-19 04:08:00,65.2,64.0,30.05,ENE,67,1.2,3.0,97,0.00,,,0.00,Rainwise IP-100,2014-09-19 09:08:00,
2014-09-19 04:13:00,65.1,64.0,30.05,ENE,67,1.6,3.0,97,0.00,,,0.00,Rainwise IP-100,2014-09-19 09:13:00,
2014-09-19 04:18:00,65.1,64.0,30.05,ENE,67,0.0,3.0,97,0.00,,,0.00,Rainwise IP-100,2014-09-19 09:18:00,
2014-09-19 04:23:00,65.1,64.0,30.05,ENE,67,0.0,2.0,97,0.00,,,0.00,Rainwise IP-100,2014-09-19 09:23:00,
2014-09-19 04:28:00,65.1,64.0,30.05,ENE,67,1.4,3.0,97,0.00,,,0.00,Rainwise IP-100,2014-09-19 09:28:00,
2014-09-19 04:33:00,65.1,64.0,30.05,ENE,67,2.6,2.6,98,0.00,,,0.00,Rainwise IP-100,2014-09-19 09:33:00,
2014-09-19 04:38:00,65.1,64.0,30.05,ENE,67,2.1,3.0,98,0.00,,,0.00,Rainwise IP-100,2014-09-19 09:38:00,
2014-09-19 04:43:00,65.1,64.0,30.05,ENE,67,1.2,3.0,98,0.00,,,0.00,Rainwise IP-100,2014-09-19 09:43:00,
2014-09-19 04:48:00,65.0,64.0,30.05,ENE,67,2.8,4.0,98,0.00,,,0.00,Rainwise IP-100,2014-09-19 09:48:00,
2014-09-19 04:53:00,65.0,64.0,30.05,ENE,67,2.8,3.0,98,0.00,,,0.00,Rainwise IP-100,2014-09-19 09:53:00,
2014-09-19 04:58:00,65.0,64.0,30.05,ENE,67,1.2,3.0,98,0.00,,,0.00,Rainwise IP-100,2014-09-19 09:58:00,
2014-09-19 05:03:00,65.0,64.0,30.05,ENE,67,3.0,3.0,98,0.00,,,0.00,Rainwise IP-100,2014-09-19 10:03:00,
2014-09-19 05:08:00,64.9,64.0,30.05,ENE,67,1.2,4.0,98,0.00,,,0.00,Rainwise IP-100,2014-09-19 10:08:00,
2014-09-19 05:13:00,64.9,64.0,30.05,ENE,67,2.3,4.0,98,0.00,,,0.00,Rainwise IP-100,2014-09-19 10:13:00,
2014-09-19 05:18:00,64.8,64.0,30.05,ENE,67,0.0,4.0,98,0.00,,,0.00,Rainwise IP-100,2014-09-19 10:18:00,
2014-09-19 05:23:00,64.8,64.0,30.05,ENE,67,2.3,3.0,98,0.00,,,0.00,Rainwise IP-100,2014-09-19 10:23:00,
2014-09-19 05:28:00,64.8,64.0,30.05,ENE,67,3.3,3.3,98,0.00,,,0.00,Rainwise IP-100,2014-09-19 10:28:00,
2014-09-19 05:33:00,64.8,64.0,30.05,ESE,112,3.5,3.5,98,0.00,,,0.00,Rainwise IP-100,2014-09-19 10:33:00,
2014-09-19 05:38:00,64.7,64.0,30.05,ENE,67,1.4,5.0,98,0.00,,,0.00,Rainwise IP-100,2014-09-19 10:38:00,
2014-09-19 05:43:00,64.7,64.0,30.06,ENE,67,3.0,3.0,98,0.00,,,0.00,Rainwise IP-100,2014-09-19 10:43:00,
2014-09-19 05:48:00,64.8,64.0,30.05,ESE,112,2.3,4.0,98,0.00,,,0.00,Rainwise IP-100,2014-09-19 10:48:00,
2014-09-19 05:49:00,64.8,64.0,30.05,ESE,112,3.0,4.0,98,0.00,,,0.00,Rainwise IP-100,2014-09-19 10:49:00,
2014-09-19 05:54:00,64.7,64.0,30.05,East,90,1.9,4.0,98,0.00,,,0.00,Rainwise IP-100,2014-09-19 10:54:00,
2014-09-19 05:59:00,64.6,64.0,30.06,ENE,67,2.8,4.0,98,0.00,,,0.00,Rainwise IP-100,2014-09-19 10:59:00,
2014-09-19 06:04:00,64.7,64.0,30.06,East,90,2.1,4.0,98,0.00,,,0.00,Rainwise IP-100,2014-09-19 11:04:00,
2014-09-19 06:09:00,64.7,64.0,30.06,ENE,67,2.1,3.0,98,0.00,,,0.00,Rainwise IP-100,2014-09-19 11:09:00,
2014-09-19 06:14:00,64.6,64.0,30.06,ENE,67,1.4,3.0,98,0.00,,,0.00,Rainwise IP-100,2014-09-19 11:14:00,
2014-09-19 06:19:00,64.6,64.0,30.06,East,90,1.2,4.0,99,0.00,,,0.00,Rainwise IP-100,2014-09-19 11:19:00,
2014-09-19 06:24:00,64.7,64.0,30.06,ENE,67,0.0,3.0,99,0.00,,,0.00,Rainwise IP-100,2014-09-19 11:24:00,
2014-09-19 06:29:00,64.8,64.0,30.06,ENE,67,0.0,1.0,99,0.00,,,0.00,Rainwise IP-100,2014-09-19 11:29:00,
2014-09-19 06:34:00,64.8,64.0,30.07,ENE,67,0.0,1.0,99,0.00,,,0.00,Rainwise IP-100,2014-09-19 11:34:00,
2014-09-19 06:39:00,64.8,64.0,30.06,ENE,67,2.1,2.1,99,0.00,,,0.00,Rainwise IP-100,2014-09-19 11:39:00,
2014-09-19 06:44:00,64.7,64.0,30.07,ENE,67,2.8,3.0,99,0.00,,,0.00,Rainwise IP-100,2014-09-19 11:44:00,
2014-09-19 06:49:00,64.5,64.0,30.07,ENE,67,1.9,4.0,99,0.00,,,0.00,Rainwise IP-100,2014-09-19 11:49:00,
2014-09-19 06:54:00,64.6,64.0,30.07,ENE,67,1.2,3.0,99,0.00,,,0.00,Rainwise IP-100,2014-09-19 11:54:00,
2014-09-19 06:59:00,64.5,64.0,30.07,East,90,0.0,2.0,99,0.00,,,0.00,Rainwise IP-100,2014-09-19 11:59:00,
2014-09-19 07:04:00,64.4,64.0,30.07,ENE,67,1.4,2.0,99,0.00,,,0.00,Rainwise IP-100,2014-09-19 12:04:00,
2014-09-19 07:09:00,64.3,63.0,30.08,ESE,112,2.3,4.0,99,0.00,,,0.00,Rainwise IP-100,2014-09-19 12:09:00,
2014-09-19 07:14:00,64.2,63.0,30.07,ENE,67,0.0,4.0,99,0.00,,,0.00,Rainwise IP-100,2014-09-19 12:14:00,
2014-09-19 07:19:00,64.1,63.0,30.07,ENE,67,2.1,4.0,99,0.00,,,0.00,Rainwise IP-100,2014-09-19 12:19:00,
2014-09-19 07:24:00,64.0,63.0,30.08,ENE,67,1.9,4.0,99,0.00,,,0.00,Rainwise IP-100,2014-09-19 12:24:00,
2014-09-19 07:29:00,64.0,63.0,30.08,ENE,67,1.6,4.0,99,0.00,,,0.00,Rainwise IP-100,2014-09-19 12:29:00,
2014-09-19 07:34:00,64.0,63.0,30.08,ENE,67,1.2,4.0,99,0.00,,,0.00,Rainwise IP-100,2014-09-19 12:34:00,
2014-09-19 07:39:00,63.9,63.0,30.08,East,90,0.0,3.0,99,0.00,,,0.00,Rainwise IP-100,2014-09-19 12:39:00,
2014-09-19 07:44:00,63.9,63.0,30.08,East,90,2.1,2.1,99,0.00,,,0.00,Rainwise IP-100,2014-09-19 12:44:00,
2014-09-19 07:49:00,64.0,63.0,30.08,East,90,1.9,3.0,99,0.00,,,0.00,Rainwise IP-100,2014-09-19 12:49:00,
2014-09-19 07:54:00,64.1,63.0,30.08,ENE,67,1.4,2.0,99,0.00,,,0.00,Rainwise IP-100,2014-09-19 12:54:00,
2014-09-19 07:59:00,64.4,64.0,30.08,ENE,67,2.8,2.8,99,0.00,,,0.00,Rainwise IP-100,2014-09-19 12:59:00,
2014-09-19 08:04:00,64.4,64.0,30.08,ENE,67,1.2,5.0,99,0.00,,,0.00,Rainwise IP-100,2014-09-19 13:04:00,
2014-09-19 08:09:00,64.4,64.0,30.09,ENE,67,3.3,4.0,99,0.00,,,0.00,Rainwise IP-100,2014-09-19 13:09:00,
2014-09-19 08:14:00,64.4,64.0,30.08,ENE,67,0.0,4.0,99,0.00,,,0.00,Rainwise IP-100,2014-09-19 13:14:00,
2014-09-19 08:19:00,64.6,64.0,30.08,ENE,67,2.6,3.0,99,0.00,,,0.00,Rainwise IP-100,2014-09-19 13:19:00,
2014-09-19 08:24:00,64.8,64.0,30.08,East,90,2.3,3.0,99,0.00,,,0.00,Rainwise IP-100,2014-09-19 13:24:00,
2014-09-19 08:29:00,65.1,64.0,30.08,East,90,1.6,3.0,99,0.00,,,0.00,Rainwise IP-100,2014-09-19 13:29:00,
2014-09-19 08:34:00,65.3,64.0,30.08,ENE,67,3.0,3.0,99,0.00,,,0.00,Rainwise IP-100,2014-09-19 13:34:00,
2014-09-19 08:39:00,65.5,65.0,30.09,ESE,112,1.6,4.0,99,0.00,,,0.00,Rainwise IP-100,2014-09-19 13:39:00,
2014-09-19 08:44:00,65.7,65.0,30.09,ESE,112,3.5,3.5,99,0.00,,,0.00,Rainwise IP-100,2014-09-19 13:44:00,
2014-09-19 08:49:00,65.8,65.0,30.09,ENE,67,1.9,3.0,99,0.00,,,0.00,Rainwise IP-100,2014-09-19 13:49:00,
2014-09-19 08:54:00,66.0,65.0,30.09,East,90,2.1,3.0,99,0.00,,,0.00,Rainwise IP-100,2014-09-19 13:54:00,
2014-09-19 08:59:00,66.4,66.0,30.09,ENE,67,4.0,4.0,99,0.00,,,0.00,Rainwise IP-100,2014-09-19 13:59:00,
2014-09-19 09:04:00,66.8,66.0,30.09,East,90,2.6,4.0,98,0.00,,,0.00,Rainwise IP-100,2014-09-19 14:04:00,
2014-09-19 09:09:00,67.1,66.0,30.09,East,90,2.3,3.0,98,0.00,,,0.00,Rainwise IP-100,2014-09-19 14:09:00,
2014-09-19 09:14:00,67.4,66.0,30.09,East,90,4.2,4.2,97,0.00,,,0.00,Rainwise IP-100,2014-09-19 14:14:00,
2014-09-19 09:19:00,67.9,67.0,30.09,ENE,67,2.3,4.0,97,0.00,,,0.00,Rainwise IP-100,2014-09-19 14:19:00,
2014-09-19 09:24:00,68.2,66.0,30.09,ENE,67,2.8,3.0,96,0.00,,,0.00,Rainwise IP-100,2014-09-19 14:24:00,
2014-09-19 09:29:00,68.5,67.0,30.09,ENE,67,2.3,3.0,96,0.00,,,0.00,Rainwise IP-100,2014-09-19 14:29:00,
2014-09-19 09:34:00,68.9,67.0,30.09,ENE,67,1.6,2.0,95,0.00,,,0.00,Rainwise IP-100,2014-09-19 14:34:00,
2014-09-19 09:39:00,69.2,67.0,30.09,ENE,67,1.2,4.0,95,0.00,,,0.00,Rainwise IP-100,2014-09-19 14:39:00,
2014-09-19 09:44:00,69.5,68.0,30.09,SSW,202,0.0,2.0,94,0.00,,,0.00,Rainwise IP-100,2014-09-19 14:44:00,
2014-09-19 09:49:00,69.9,68.0,30.09,ENE,67,1.4,4.0,93,0.00,,,0.00,Rainwise IP-100,2014-09-19 14:49:00,
2014-09-19 09:54:00,70.3,68.0,30.10,ENE,67,1.9,3.0,93,0.00,,,0.00,Rainwise IP-100,2014-09-19 14:54:00,
2014-09-19 09:59:00,70.7,68.0,30.09,ENE,67,4.0,4.0,92,0.00,,,0.00,Rainwise IP-100,2014-09-19 14:59:00,
2014-09-19 10:04:00,70.9,68.0,30.10,ENE,67,0.0,4.0,91,0.00,,,0.00,Rainwise IP-100,2014-09-19 15:04:00,
2014-09-19 10:09:00,71.2,68.0,30.10,ENE,67,1.6,4.0,90,0.00,,,0.00,Rainwise IP-100,2014-09-19 15:09:00,
2014-09-19 10:14:00,71.4,68.0,30.10,ENE,67,2.1,4.0,90,0.00,,,0.00,Rainwise IP-100,2014-09-19 15:14:00,
2014-09-19 10:19:00,71.7,68.0,30.10,ESE,112,0.0,3.0,89,0.00,,,0.00,Rainwise IP-100,2014-09-19 15:19:00,
2014-09-19 10:24:00,72.3,68.0,30.09,ENE,67,2.6,4.0,88,0.00,,,0.00,Rainwise IP-100,2014-09-19 15:24:00,
2014-09-19 10:29:00,72.8,68.0,30.10,ENE,67,1.9,4.0,86,0.00,,,0.00,Rainwise IP-100,2014-09-19 15:29:00,
2014-09-19 10:34:00,73.2,68.0,30.10,ENE,67,3.0,4.0,84,0.00,,,0.00,Rainwise IP-100,2014-09-19 15:34:00,
2014-09-19 10:39:00,73.6,68.0,30.10,ENE,67,1.4,4.0,83,0.00,,,0.00,Rainwise IP-100,2014-09-19 15:39:00,
2014-09-19 10:44:00,74.1,68.0,30.10,ENE,67,3.5,3.5,82,0.00,,,0.00,Rainwise IP-100,2014-09-19 15:44:00,
2014-09-19 10:49:00,74.4,68.0,30.10,ENE,67,0.0,4.0,81,0.00,,,0.00,Rainwise IP-100,2014-09-19 15:49:00,
2014-09-19 10:54:00,74.9,69.0,30.10,NNE,22,2.3,2.3,81,0.00,,,0.00,Rainwise IP-100,2014-09-19 15:54:00,
2014-09-19 10:59:00,75.5,69.0,30.10,ENE,67,4.2,4.2,80,0.00,,,0.00,Rainwise IP-100,2014-09-19 15:59:00,
2014-09-19 11:04:00,75.6,68.0,30.10,ENE,67,1.6,4.0,79,0.00,,,0.00,Rainwise IP-100,2014-09-19 16:04:00,
2014-09-19 11:09:00,75.4,68.0,30.10,ESE,112,1.6,4.0,79,0.00,,,0.00,Rainwise IP-100,2014-09-19 16:09:00,
2014-09-19 11:14:00,75.8,68.0,30.10,ESE,112,0.0,2.0,79,0.00,,,0.00,Rainwise IP-100,2014-09-19 16:14:00,
2014-09-19 11:19:00,76.8,69.0,30.10,ESE,112,0.0,1.0,79,0.00,,,0.00,Rainwise IP-100,2014-09-19 16:19:00,
2014-09-19 11:24:00,77.5,70.0,30.09,ESE,112,0.0,0.0,78,0.00,,,0.00,Rainwise IP-100,2014-09-19 16:24:00,
2014-09-19 11:29:00,77.6,70.0,30.10,ESE,112,1.9,1.9,77,0.00,,,0.00,Rainwise IP-100,2014-09-19 16:29:00,
2014-09-19 11:34:00,77.2,69.0,30.10,ESE,112,0.0,1.0,77,0.00,,,0.00,Rainwise IP-100,2014-09-19 16:34:00,
2014-09-19 11:39:00,76.7,69.0,30.10,ESE,112,0.0,2.0,77,0.00,,,0.00,Rainwise IP-100,2014-09-19 16:39:00,
2014-09-19 11:44:00,76.1,68.0,30.10,ENE,67,2.3,3.0,77,0.00,,,0.00,Rainwise IP-100,2014-09-19 16:44:00,
2014-09-19 11:49:00,75.9,68.0,30.10,ENE,67,2.6,4.0,78,0.00,,,0.00,Rainwise IP-100,2014-09-19 16:49:00,
2014-09-19 11:54:00,75.9,68.0,30.10,East,90,0.0,4.0,78,0.00,,,0.00,Rainwise IP-100,2014-09-19 16:54:00,
2014-09-19 11:59:00,76.1,68.0,30.10,ENE,67,2.6,2.6,78,0.00,,,0.00,Rainwise IP-100,2014-09-19 16:59:00,
2014-09-19 12:04:00,76.5,69.0,30.10,ENE,67,1.2,2.0,78,0.00,,,0.00,Rainwise IP-100,2014-09-19 17:04:00,
2014-09-19 12:09:00,76.8,69.0,30.10,ENE,67,1.4,1.4,77,0.00,,,0.00,Rainwise IP-100,2014-09-19 17:09:00,
2014-09-19 12:14:00,76.8,69.0,30.09,ENE,67,0.0,3.0,77,0.00,,,0.00,Rainwise IP-100,2014-09-19 17:14:00,
2014-09-19 12:19:00,77.2,69.0,30.10,ENE,67,1.2,1.2,76,0.00,,,0.00,Rainwise IP-100,2014-09-19 17:19:00,
2014-09-19 12:24:00,77.4,69.0,30.10,ENE,67,2.6,3.0,76,0.00,,,0.00,Rainwise IP-100,2014-09-19 17:24:00,
2014-09-19 12:29:00,77.4,69.0,30.10,ENE,67,0.0,3.0,75,0.00,,,0.00,Rainwise IP-100,2014-09-19 17:29:00,
2014-09-19 12:34:00,78.1,69.0,30.09,ENE,67,0.0,4.0,75,0.00,,,0.00,Rainwise IP-100,2014-09-19 17:34:00,
2014-09-19 12:39:00,79.3,70.0,30.09,ENE,67,1.6,3.0,74,0.00,,,0.00,Rainwise IP-100,2014-09-19 17:39:00,
2014-09-19 12:44:00,79.2,70.0,30.09,ENE,67,2.3,3.0,73,0.00,,,0.00,Rainwise IP-100,2014-09-19 17:44:00,
2014-09-19 12:49:00,78.2,69.0,30.09,ESE,112,1.6,3.0,73,0.00,,,0.00,Rainwise IP-100,2014-09-19 17:49:00,
2014-09-19 12:54:00,78.4,69.0,30.09,SSE,157,0.0,3.0,73,0.00,,,0.00,Rainwise IP-100,2014-09-19 17:54:00,
2014-09-19 12:59:00,79.3,70.0,30.09,ESE,112,0.0,2.0,73,0.00,,,0.00,Rainwise IP-100,2014-09-19 17:59:00,
2014-09-19 13:04:00,79.6,69.0,30.09,ENE,67,2.1,2.1,72,0.00,,,0.00,Rainwise IP-100,2014-09-19 18:04:00,
2014-09-19 13:09:00,80.0,69.0,30.09,SSW,202,1.2,3.0,70,0.00,,,0.00,Rainwise IP-100,2014-09-19 18:09:00,
2014-09-19 13:14:00,80.6,70.0,30.08,ENE,67,4.2,4.2,70,0.00,,,0.00,Rainwise IP-100,2014-09-19 18:14:00,
2014-09-19 13:19:00,80.8,69.0,30.08,SSE,157,0.0,4.0,69,0.00,,,0.00,Rainwise IP-100,2014-09-19 18:19:00,
2014-09-19 13:24:00,80.8,69.0,30.08,ENE,67,1.9,5.0,68,0.00,,,0.00,Rainwise IP-100,2014-09-19 18:24:00,
2014-09-19 13:29:00,80.5,69.0,30.08,ESE,112,0.0,6.0,69,0.00,,,0.00,Rainwise IP-100,2014-09-19 18:29:00,
2014-09-19 13:34:00,80.4,69.0,30.08,East,90,1.2,5.0,69,0.00,,,0.00,Rainwise IP-100,2014-09-19 18:34:00,
2014-09-19 13:39:00,80.4,70.0,30.08,ENE,67,1.2,5.0,70,0.00,,,0.00,Rainwise IP-100,2014-09-19 18:39:00,
2014-09-19 13:44:00,79.9,69.0,30.08,ENE,67,0.0,4.0,70,0.00,,,0.00,Rainwise IP-100,2014-09-19 18:44:00,
2014-09-19 13:49:00,79.8,69.0,30.07,ENE,67,0.0,4.0,71,0.00,,,0.00,Rainwise IP-100,2014-09-19 18:49:00,
2014-09-19 13:54:00,79.9,69.0,30.07,ENE,67,1.9,1.9,71,0.00,,,0.00,Rainwise IP-100,2014-09-19 18:54:00,
2014-09-19 13:59:00,79.8,69.0,30.07,ENE,67,0.0,2.0,71,0.00,,,0.00,Rainwise IP-100,2014-09-19 18:59:00,
2014-09-19 14:04:00,79.7,69.0,30.07,ENE,67,0.0,3.0,71,0.00,,,0.00,Rainwise IP-100,2014-09-19 19:04:00,
2014-09-19 14:09:00,79.6,69.0,30.07,ENE,67,0.0,1.0,71,0.00,,,0.00,Rainwise IP-100,2014-09-19 19:09:00,
2014-09-19 14:12:00,79.4,69.0,30.07,ENE,67,0.0,3.0,71,0.00,,,0.00,Rainwise IP-100,2014-09-19 19:12:00,